User: anonymous   Login
Location: Azul
(36.7830°S, 59.8500°W)
Time: 01:52:09
(UTC-03:00)
Language:

XW-2B - Orbit

View from above orbital plane
View from above orbital plane
View from above satellite
View from above satellite

Ground track
Ground track

The orbit data is extracted from the following two-line orbital elements,

1 40911U 15049N   21295.91171483  .00001934  00000-0  10002-3 0  9990
2 40911  97.4885 297.2313 0015310 100.9399 321.9542 15.17362195336813
Epoch (UTC): 22 October 2021 21:52:52
Eccentricity: 0.0015310
inclination: 97.4885°
perigee height: 503 km
apogee height: 524 km
right ascension of ascending node: 297.2313°
argument of perigee: 100.9399°
revolutions per day: 15.17362195
mean anomaly at epoch: 321.9542°
orbit number at epoch: 33681

The dashed part of the orbit path shows where the satellite is in the earth's shadow,  

DLR